Location: Newark
(50.8964°N, 1.4048°W)
Time: 10:37:02
(UTC+00:00)

ISS - Visible Passes

Search period start: 22 January 2020 00:00
Search period end: 01 February 2020 00:00
Orbit: 415 x 421 km, 51.6° (Epoch: 22 January)

Date Brightness Start Highest point End Pass type
(mag) Time Alt. Az. Time Alt. Az. Time Alt. Az.
22 Jan -2.1 18:59:16 10° SW 19:01:15 27° SSW 19:01:15 27° SSW visible
23 Jan -2.3 18:11:42 10° SSW 18:14:31 25° SE 18:15:23 22° ESE visible
23 Jan -0.7 19:47:37 10° WSW 19:48:20 15° WSW 19:48:20 15° WSW visible
24 Jan -1.7 17:24:22 10° S 17:26:41 17° SE 17:29:01 10° E visible
24 Jan -3.1 18:59:40 10° WSW 19:02:24 51° SSW 19:02:24 51° SSW visible
25 Jan -3.3 18:11:48 10° SW 18:15:03 47° SSE 18:16:26 28° E visible
25 Jan -0.9 19:48:23 10° W 19:49:22 18° W 19:49:22 18° W visible
26 Jan -2.7 17:24:02 10° SW 17:27:08 34° SSE 17:30:13 10° E visible
26 Jan -3.5 19:00:21 10° W 19:03:21 68° W 19:03:21 68° W visible
27 Jan -3.8 18:12:19 10° WSW 18:15:41 79° SSE 18:17:17 28° E visible
27 Jan -1.0 19:49:09 10° W 19:50:13 19° W 19:50:13 19° W visible
28 Jan -3.5 17:24:20 10° WSW 17:27:40 62° SSE 17:31:00 10° ENE visible
28 Jan -3.6 19:01:04 10° W 19:04:09 68° NW 19:04:09 68° NW visible
29 Jan -3.8 18:13:00 10° W 18:16:22 79° N 18:18:04 27° ENE visible
29 Jan -1.0 19:49:50 10° WNW 19:50:59 20° W 19:50:59 20° W visible
30 Jan -3.7 17:24:54 10° W 17:28:17 88° N 17:31:40 10° E visible
30 Jan -3.7 19:01:46 10° W 19:04:55 75° WNW 19:04:55 75° WNW visible
31 Jan -3.8 18:13:39 10° W 18:17:02 77° N 18:18:51 25° E visible
31 Jan -1.1 19:50:28 10° W 19:51:47 21° W 19:51:47 21° W visible
